Wind_Speed
13 12 13 13 12 12 12 13 12 11 10 10 13 12 12 13 14 14 11 12 12 13 17 18 17 13 11 6 6 14 12 14 5 12 22 21 20 23 20 29 10 7 21 33 29
11 11 10 11 12 12 11 11 12 12 12 10 11 13 12 13 14 11 14 11 12 12 18 18 17 14 10 10 4 11 8 15 3 7 9 22 20 19 20 18 16 22 24 32 27
13 12 10 9 10 11 11 11 11 11 12 11 10 12 13 12 13 12 12 13 13 14 17 17 17 11 6 6 7 14 11 1 6 5 13 23 25 17 17 13 12 19 30 35 24
13 12 11 10 9 9 10 11 11 11 11 11 11 11 13 12 10 13 13 13 14 15 19 23 20 12 8 7 8 15 13 4 6 5 20 26 28 21 19 19 24 10 31 36 23
14 13 12 10 9 8 9 11 12 11 10 10 12 11 13 13 16 5 13 16 16 14 18 22 21 12 9 9 5 17 11 9 10 9 17 20 19 21 15 23 26 15 29 32 27
14 12 11 12 11 9 8 9 10 11 11 10 11 12 13 13 18 14 8 13 15 13 17 23 20 12 9 8 12 13 14 15 7 6 6 11 18 21 22 29 22 16 29 30 24
13 12 11 10 10 10 9 8 9 10 10 10 10 12 13 14 17 12 11 12 16 13 16 19 14 11 10 11 10 12 6 11 11 3 8 14 18 18 23 27 28 25 29 30 25
13 11 11 10 10 9 8 7 6 8 9 9 9 10 11 18 17 12 13 13 17 16 18 15 16 13 19 16 12 12 15 18 19 13 7 8 21 24 26 31 30 30 28 28 28
12 10 10 10 8 7 4 3 2 5 6 8 8 9 10 14 15 11 12 13 18 19 18 9 11 16 21 15 13 15 22 18 19 13 8 8 17 25 30 22 34 33 29 29 26
13 10 8 7 5 4 3 6 9 4 3 6 6 5 3 5 10 10 12 6 16 18 15 15 18 18 23 17 21 15 22 16 21 27 16 16 13 18 34 23 35 35 31 28 28
13 9 6 5 3 2 8 8 10 10 3 5 8 7 3 7 8 11 18 18 13 11 15 16 16 21 26 20 19 17 19 16 7 23 23 14 13 17 34 33 34 34 30 28 28
13 9 6 3 2 6 8 4 4 2 6 6 8 8 6 9 13 11 14 17 18 17 17 13 18 15 12 14 20 21 18 13 11 23 11 15 15 20 25 30 31 33 30 31 30
12 9 6 5 5 5 3 5 6 9 10 6 8 6 5 11 11 14 19 17 16 18 16 19 11 12 19 19 24 22 21 18 22 15 17 19 16 27 32 24 37 31 34 32 28
11 10 8 6 8 11 9 10 13 5 9 3 10 11 16 12 15 11 9 18 16 14 15 20 17 20 17 24 20 23 20 26 25 14 14 14 9 21 27 30 28 30 39 35 30
10 7 6 7 8 9 6 7 8 4 4 14 7 4 12 17 6 19 13 18 18 10 16 21 18 16 24 19 20 21 16 10 14 17 17 28 7 20 26 23 27 38 40 33 35
9 6 6 6 10 12 10 6 4 4 4 9 11 11 12 10 10 14 14 17 16 15 18 21 17 17 18 18 21 15 18 9 13 10 8 25 12 17 30 26 36 31 31 33 32
8 6 4 5 2 9 9 7 6 3 7 9 8 8 11 12 11 21 12 16 17 11 16 20 21 21 18 20 23 17 15 8 3 7 14 28 20 5 29 21 6 33 31 34 35
7 4 1 4 4 14 10 7 2 7 5 6 7 8 9 16 13 20 12 16 15 19 20 19 19 24 19 22 20 20 19 11 4 6 8 20 11 15 23 21 24 16 25 37 28
7 2 5 5 7 11 6 10 4 4 5 14 14 8 11 11 8 12 14 15 15 18 20 11 25 18 24 21 22 19 19 26 20 24 8 9 15 16 26 28 18 22 13 27 32
4 3 7 9 5 6 2 9 7 2 8 12 10 6 6 6 7 11 14 11 8 7 3 14 10 15 13 23 17 19 10 9 13 2 2 8 12 11 21 30 30 19 22 13 22
6 3 8 8 4 6 10 9 6 1 4 5 9 3 8 2 3 19 9 4 2 4 3 9 6 6 18 13 14 19 18 8 9 8 4 5 5 12 22 21 24 29 26 27 24
7 8 9 5 10 11 10 1 2 2 3 6 8 12 11 3 14 14 6 10 6 10 4 5 9 9 14 15 12 16 15 12 12 12 6 9 7 15 20 12 11 17 24 28 28
9 4 5 4 6 9 7 6 5 4 1 4 5 5 7 6 6 1 2 4 3 9 3 7 7 14 14 12 10 12 23 18 15 15 18 6 11 17 15 13 15 14 15 19 28
4 8 5 1 2 3 4 2 3 5 1 3 1 2 4 1 5 4 3 3 5 2 8 5 4 7 12 3 7 10 16 16 13 11 13 12 19 24 27 24 17 17 12 14 17
4 5 3 3 7 5 3 7 1 4 5 2 1 4 6 5 4 6 10 7 3 6 3 2 20 10 11 10 7 6 11 21 14 11 6 9 10 20 20 18 15 14 11 9 8
6 6 7 3 3 4 2 4 3 4 5 5 1 3 5 8 3 13 10 4 3 6 3 1 11 29 17 5 5 9 8 17 13 1 2 12 15 12 13 11 16 12 10 11 11
7 7 6 8 7 5 6 7 1 3 4 1 4 5 7 5 5 7 2 7 6 6 4 0 5 8 9 10 13 7 7 6 5 2 4 16 11 14 14 16 15 17 15 13 12
Wind_Direction
315 305 293 283 277 275 270 271 267 261 257 250 250 243 234 231 231 226 218 209 203 197 195 197 192 185 201 151 24 265 359 325 141 163 169 154 159 146 133 138 136 155 142 136 154
313 306 297 285 273 266 267 265 266 265 260 252 246 244 239 234 233 227 225 207 198 202 193 193 190 191 195 104 147 241 313 348 84 211 223 169 170 153 131 153 157 146 143 141 156
309 305 304 289 277 267 259 259 261 260 258 256 247 241 238 236 234 215 219 212 206 190 191 183 179 191 167 124 170 246 272 346 75 208 180 176 176 169 138 160 182 164 149 145 172
317 311 303 299 292 273 261 253 254 257 256 250 245 238 235 228 222 218 209 212 208 194 186 185 164 198 174 201 194 233 271 250 176 170 171 178 176 175 172 165 169 158 149 143 173
323 313 305 297 289 284 266 256 250 252 252 249 243 229 230 225 220 216 204 205 205 200 193 196 164 170 196 188 200 253 265 180 170 51 166 184 176 189 177 147 175 164 149 149 159
340 326 309 307 304 291 274 256 248 248 249 245 238 229 219 216 224 218 207 198 199 200 191 196 154 170 195 221 258 270 223 210 173 70 155 185 168 181 172 159 178 171 155 150 163
338 335 323 311 305 303 286 266 245 236 243 244 236 226 214 211 238 217 217 200 191 194 189 180 138 189 218 255 207 239 240 172 215 212 140 173 167 174 179 172 171 169 161 155 165
333 330 323 314 312 313 300 273 255 231 230 234 236 224 209 209 226 246 217 201 187 178 187 152 170 211 215 204 216 233 244 225 185 198 157 179 190 179 177 175 173 171 165 159 167
339 334 322 315 319 325 328 300 277 232 215 225 227 218 203 222 228 237 203 190 184 172 149 147 212 231 201 219 238 220 225 219 173 219 220 179 176 188 179 191 163 172 168 164 173
348 340 333 326 333 357 68 90 77 41 201 196 172 162 321 301 232 210 155 154 184 167 159 176 221 224 194 207 231 219 227 198 199 193 208 183 182 176 193 188 166 167 172 172 182
356 349 345 348 0 102 121 89 56 22 52 154 147 128 19 331 179 169 163 175 191 173 200 205 216 214 196 195 208 218 225 217 214 200 202 207 204 188 186 185 166 171 177 179 188
3 2 360 5 59 149 156 118 109 344 300 179 153 119 159 250 173 182 167 176 176 197 196 220 236 206 212 218 232 248 266 289 168 171 192 187 187 190 185 185 164 174 182 190 192
5 16 30 51 77 106 153 314 83 27 298 184 196 137 166 199 198 183 196 170 197 196 209 218 236 195 213 232 241 251 254 203 208 192 270 177 171 188 187 183 179 177 183 203 203
4 12 35 83 105 82 41 26 16 337 298 228 177 205 170 206 217 221 230 165 197 216 216 236 215 236 227 233 235 246 250 200 190 175 185 217 161 189 193 195 196 184 183 200 208
358 7 34 72 102 68 63 270 331 84 285 159 195 193 184 210 157 206 237 187 201 212 218 232 239 231 228 235 231 242 223 206 267 219 184 209 185 182 186 199 204 195 189 188 214
353 2 28 107 82 52 30 14 42 305 280 158 156 172 201 231 200 196 209 205 207 245 240 243 227 246 229 233 230 238 236 259 208 182 219 195 180 192 193 197 206 214 196 197 209
344 346 20 35 44 81 68 42 306 303 323 135 183 181 209 217 224 188 203 219 227 245 250 234 246 228 242 232 229 235 227 222 155 129 241 211 198 167 188 187 168 194 190 209 195
321 343 57 76 67 99 50 6 3 293 306 335 278 233 209 213 225 190 206 210 231 236 260 233 235 228 233 217 223 239 241 230 136 246 241 177 136 154 172 178 175 259 201 198 188
303 212 132 120 60 66 59 20 293 351 7 322 319 268 199 201 198 180 211 218 224 245 252 297 223 226 222 209 231 251 245 230 265 298 227 124 103 144 178 169 175 169 203 197 198
288 263 161 84 39 48 306 276 249 291 316 307 303 309 181 198 198 218 333 186 222 137 285 238 313 251 197 201 224 231 255 254 248 291 30 132 149 170 192 197 205 207 184 203 207
181 106 143 79 155 186 244 280 301 26 267 345 347 299 41 177 229 7 228 15 257 169 14 193 313 297 190 212 216 228 245 257 284 283 183 158 121 191 209 202 213 207 202 195 194
160 119 157 291 216 228 246 176 124 313 358 329 357 221 46 85 129 243 243 225 240 208 325 318 223 289 206 236 229 222 237 258 268 274 330 126 117 149 207 201 208 210 217 218 213
170 131 145 192 234 306 193 162 202 143 97 40 41 34 352 115 111 214 139 251 272 210 271 182 10 335 259 228 221 235 240 257 258 291 285 172 153 176 246 267 197 199 187 200 211
138 67 202 12 187 355 141 134 160 348 6 206 12 105 194 359 182 177 129 260 192 212 202 270 133 355 276 224 15 313 248 232 255 286 93 69 154 190 208 213 207 186 175 182 195
94 39 62 44 124 48 136 76 39 94 15 331 247 255 280 309 200 203 230 229 251 197 214 11 197 325 318 223 313 306 330 237 244 292 62 152 208 204 210 211 193 172 172 183 183
148 125 109 27 221 116 88 145 52 75 68 64 50 313 304 351 56 252 324 170 233 268 251 106 184 243 310 2 349 310 348 220 250 93 93 148 174 213 198 211 189 164 167 184 188
180 163 98 55 82 332 90 106 136 68 5 37 100 350 209 130 127 137 26 195 27 133 120 83 144 199 272 331 328 318 307 339 14 84 188 179 184 188 194 194 171 169 181 198 186
Height
3127 3126 3126 3126 3127 3127 3126 3126 3126 3126 3127 3128 3129 3130 3131 3132 3133 3135 3137 3139 3140 3142 3146 3149 3152 3155 3158 3160 3162 3163 3164 3164 3168 3170 3167 3168 3171 3173 3172 3175 3177 3179 3182 3184 3189
3125 3124 3123 3122 3122 3123 3124 3123 3123 3124 3124 3125 3127 3128 3129 3130 3131 3134 3136 3137 3138 3141 3144 3148 3152 3155 3157 3160 3165 3167 3168 3164 3165 3168 3170 3171 3172 3172 3174 3177 3178 3180 3186 3189 3190
3123 3122 3120 3119 3119 3119 3119 3120 3120 3121 3121 3122 3124 3125 3127 3128 3130 3132 3133 3135 3137 3139 3142 3147 3150 3155 3157 3160 3164 3166 3167 3164 3163 3166 3168 3170 3171 3172 3174 3176 3176 3178 3184 3189 3190
3120 3119 3117 3117 3116 3116 3116 3116 3116 3117 3118 3119 3121 3123 3124 3126 3129 3129 3131 3133 3136 3137 3140 3143 3146 3154 3158 3160 3163 3166 3166 3165 3165 3167 3166 3168 3170 3171 3173 3169 3182 3182 3186 3189 3191
3118 3116 3115 3114 3113 3113 3113 3114 3114 3114 3115 3116 3118 3119 3122 3124 3125 3127 3128 3131 3134 3136 3139 3143 3144 3152 3156 3158 3163 3166 3163 3163 3165 3164 3164 3168 3172 3173 3175 3177 3182 3184 3186 3192 3197
3116 3114 3113 3113 3112 3111 3111 3111 3111 3112 3113 3114 3115 3117 3119 3122 3122 3125 3127 3129 3132 3136 3139 3142 3144 3153 3156 3158 3161 3164 3161 3152 3161 3162 3167 3169 3172 3174 3175 3176 3182 3185 3187 3192 3198
3115 3112 3111 3109 3109 3109 3109 3109 3109 3109 3111 3112 3113 3114 3117 3120 3119 3124 3126 3128 3131 3135 3138 3142 3146 3154 3156 3157 3158 3163 3161 3158 3158 3161 3165 3168 3171 3173 3175 3179 3185 3189 3189 3192 3198
3113 3111 3110 3108 3107 3106 3107 3107 3107 3107 3109 3110 3111 3113 3116 3116 3119 3121 3124 3127 3130 3134 3139 3141 3147 3150 3153 3155 3155 3158 3159 3159 3162 3161 3165 3168 3167 3171 3175 3178 3178 3192 3194 3194 3199
3112 3109 3107 3106 3105 3106 3105 3106 3106 3106 3107 3108 3111 3112 3114 3115 3119 3121 3123 3126 3130 3133 3137 3141 3147 3147 3150 3152 3153 3152 3155 3156 3162 3161 3163 3164 3164 3168 3173 3175 3179 3188 3194 3196 3198
3112 3109 3106 3105 3105 3105 3105 3106 3106 3106 3106 3107 3110 3115 3115 3115 3117 3119 3122 3126 3130 3133 3137 3141 3143 3145 3146 3148 3148 3149 3152 3155 3156 3160 3160 3160 3162 3164 3170 3174 3171 3187 3195 3197 3198
3112 3109 3106 3104 3104 3105 3106 3107 3108 3110 3107 3110 3109 3111 3113 3114 3116 3118 3122 3128 3131 3134 3137 3139 3140 3140 3143 3145 3146 3150 3153 3155 3157 3159 3161 3163 3163 3164 3169 3172 3174 3188 3194 3197 3198
3112 3109 3106 3105 3104 3105 3105 3106 3106 3110 3108 3107 3109 3110 3113 3116 3117 3119 3123 3127 3129 3132 3135 3139 3137 3139 3143 3145 3145 3147 3153 3158 3155 3158 3160 3162 3165 3165 3166 3171 3173 3184 3191 3194 3197
3112 3109 3107 3105 3104 3106 3106 3107 3106 3108 3108 3106 3108 3109 3114 3116 3117 3118 3122 3125 3128 3131 3133 3135 3135 3138 3140 3143 3144 3146 3149 3148 3157 3157 3161 3162 3165 3165 3166 3168 3173 3179 3187 3191 3194
3111 3110 3107 3106 3108 3106 3106 3106 3107 3109 3108 3106 3106 3110 3113 3116 3117 3119 3120 3124 3128 3131 3133 3134 3132 3138 3139 3139 3143 3144 3146 3145 3151 3153 3160 3169 3165 3166 3168 3170 3169 3175 3182 3186 3191
3111 3109 3108 3107 3106 3106 3107 3108 3108 3110 3107 3108 3107 3110 3110 3113 3115 3118 3120 3123 3125 3129 3133 3130 3130 3132 3136 3136 3139 3142 3145 3144 3150 3150 3151 3159 3162 3163 3166 3168 3169 3172 3174 3181 3188
3111 3109 3108 3107 3106 3106 3107 3107 3110 3112 3106 3107 3108 3111 3113 3113 3114 3120 3120 3123 3123 3126 3128 3128 3130 3131 3133 3135 3136 3140 3145 3148 3146 3149 3158 3150 3153 3158 3157 3161 3166 3168 3174 3179 3184
3110 3110 3108 3107 3106 3105 3108 3111 3113 3111 3109 3109 3108 3110 3112 3114 3114 3117 3119 3121 3122 3125 3124 3125 3125 3128 3130 3131 3133 3136 3140 3142 3148 3155 3152 3142 3150 3151 3155 3161 3160 3170 3174 3174 3179
3110 3109 3108 3107 3108 3106 3108 3113 3112 3111 3111 3108 3110 3111 3111 3113 3113 3115 3118 3120 3122 3122 3124 3124 3124 3123 3126 3128 3131 3133 3136 3137 3146 3142 3137 3137 3144 3151 3158 3161 3165 3162 3156 3169 3170
3108 3108 3107 3108 3109 3109 3112 3111 3112 3110 3111 3110 3107 3106 3109 3110 3112 3113 3117 3119 3121 3122 3124 3121 3119 3121 3123 3126 3130 3129 3131 3134 3138 3136 3134 3142 3151 3153 3159 3162 3164 3162 3161 3172 3173
3105 3105 3107 3106 3109 3112 3115 3113 3113 3112 3112 3112 3110 3107 3107 3108 3112 3114 3116 3116 3119 3118 3119 3120 3119 3117 3119 3124 3124 3126 3129 3131 3133 3134 3139 3141 3152 3153 3153 3156 3158 3159 3160 3162 3170
3104 3104 3106 3106 3110 3113 3113 3112 3112 3112 3112 3112 3110 3110 3110 3108 3112 3115 3121 3118 3117 3118 3118 3118 3121 3119 3120 3120 3123 3127 3127 3131 3132 3133 3134 3142 3150 3153 3153 3156 3156 3159 3163 3165 3167
3103 3105 3106 3109 3111 3111 3113 3111 3111 3112 3112 3111 3110 3113 3112 3112 3114 3120 3121 3121 3118 3117 3118 3119 3120 3116 3119 3121 3122 3125 3126 3129 3132 3132 3134 3135 3151 3151 3154 3157 3157 3158 3161 3164 3166
3102 3103 3106 3107 3108 3109 3110 3110 3110 3110 3111 3111 3111 3111 3112 3115 3117 3119 3119 3118 3117 3117 3118 3121 3122 3120 3117 3121 3122 3123 3125 3127 3129 3130 3130 3133 3148 3150 3151 3157 3158 3159 3160 3161 3164
3105 3104 3107 3107 3107 3109 3109 3109 3109 3110 3111 3111 3111 3112 3114 3114 3115 3115 3117 3117 3116 3118 3119 3120 3123 3127 3126 3120 3122 3122 3123 3125 3128 3130 3133 3137 3144 3147 3148 3151 3156 3158 3159 3159 3162
3104 3104 3106 3106 3105 3106 3108 3109 3110 3110 3111 3111 3112 3112 3112 3113 3113 3114 3115 3116 3116 3117 3119 3121 3125 3126 3125 3121 3122 3120 3120 3121 3125 3126 3129 3135 3140 3143 3146 3149 3153 3157 3159 3159 3161
3103 3104 3105 3105 3106 3107 3109 3109 3110 3110 3110 3112 3112 3112 3113 3109 3109 3110 3114 3116 3116 3117 3120 3121 3123 3125 3123 3119 3119 3120 3119 3119 3126 3124 3127 3131 3138 3141 3144 3147 3152 3155 3156 3157 3160
3103 3104 3105 3105 3107 3108 3108 3109 3109 3110 3111 3111 3111 3113 3110 3112 3114 3116 3114 3113 3115 3116 3118 3120 3122 3124 3122 3120 3120 3121 3122 3121 3124 3126 3126 3129 3137 3139 3143 3147 3149 3153 3156 3157 3160